Weather History for Los Alamos, NM

Change the Weather History Date:

Saturday, November 3, 2012

  Actual Average Record
Temperature  
Mean Temperature 52 °F -  
Max Temperature 60 °F 51 °F 67 °F (1983)
Min Temperature 43 °F 27 °F 10 °F (1991)
Degree Days  
Heating Degree Days 14    
Growing Degree Days 2 (Base 50)    
Moisture  
Dew Point 16 °F    
Average Humidity 24    
Maximum Humidity 32    
Minimum Humidity 16    
Precipitation  
Precipitation 0.00 in - - ()
Sea Level Pressure  
Sea Level Pressure 30.26 in    
Wind  
Wind Speed 3 mph (SSW)    
Max Wind Speed 8 mph    
Max Gust Speed -    
Averages and records for this station are not official NWS values.
T = Trace of Precipitation, MM = Missing Value Source: NWS Daily Summary

Daily Weather History Graph

Daily Weather History Graph

Search for Another Location

Airport:

Trip Planner

Search our weather history database for the weather conditions in past years. The results will help you decide how hot, cold, wet, or windy it might be!

Date:

Astronomy

Nov. 03, 2012 Rise Set
Actual Time 7:29 AM MDT 6:06 PM MDT
Civil Twilight 7:03 AM MDT 6:33 PM MDT
Nautical Twilight 6:32 AM MDT 7:03 PM MDT
Astronomical Twilight 6:02 AM MDT 7:33 PM MDT
Moon 9:53 PM MDT (11/3) 11:32 AM MDT (11/3)
Length of Visible Light 11h 30m
Length of Day
10h 37m
Waning Gibbous, 80% of the Moon is Illuminated
Nov 3
Waning Gibbous
Nov 6
Last Quarter
Nov 13
New
Nov 20
First Quarter
Nov 28
Full

Hourly Weather History & Observations

Time (MDT) Temp. Windchill Dew Point Humidity Pressure Visibility Wind Dir Wind Speed Gust Speed Precip Events Conditions
12:15 AM 52.2 °F - 8.6 °F 17% 30.20 in - WNW 3.5 mph - N/A   Clear
12:35 AM 52.9 °F - 7.5 °F 16% 30.20 in - West 3.5 mph - N/A   Clear
12:55 AM 52.0 °F - 9.1 °F 18% 30.20 in - Calm Calm - N/A   Clear
1:15 AM 51.3 °F - 11.1 °F 20% 30.20 in - WSW 5.8 mph - N/A   Clear
1:35 AM 51.1 °F - 12.0 °F 21% 30.20 in - SW 4.6 mph - N/A   Clear
1:55 AM 51.6 °F - 10.0 °F 19% 30.21 in - South 3.5 mph - N/A   Clear
2:15 AM 50.2 °F - 10.4 °F 20% 30.22 in - SSW 5.8 mph - N/A   Clear
2:35 AM 50.9 °F - 10.4 °F 20% 30.22 in - WSW 4.6 mph - N/A   Clear
2:55 AM 51.8 °F - 9.9 °F 19% 30.22 in - SSW 3.5 mph - N/A   Clear
3:15 AM 51.1 °F - 12.0 °F 21% 30.23 in - SSW 5.8 mph - N/A   Clear
3:35 AM 51.1 °F - 12.2 °F 21% 30.23 in - Calm Calm - N/A   Scattered Clouds
3:55 AM 49.1 °F - 11.7 °F 22% 30.23 in - Calm Calm - N/A   Scattered Clouds
4:15 AM 46.9 °F - 11.1 °F 24% 30.23 in - Calm Calm - N/A   Clear
4:35 AM 46.6 °F - 11.8 °F 25% 30.23 in - Calm Calm - N/A   Clear
4:55 AM 45.7 °F - 12.2 °F 26% 30.23 in - Calm Calm - N/A   Clear
5:15 AM 46.0 °F - 8.8 °F 22% 30.24 in - Calm Calm - N/A   Clear
5:35 AM 46.8 °F - 7.3 °F 20% 30.24 in - Calm Calm - N/A   Clear
5:55 AM 45.1 °F 43.7 °F 9.1 °F 23% 30.24 in - SSW 3.5 mph - N/A   Clear
6:15 AM 45.5 °F - 11.3 °F 25% 30.25 in - Calm Calm - N/A   Clear
6:35 AM 46.6 °F - 10.6 °F 23% 30.25 in - Calm Calm - N/A   Clear
6:55 AM 46.4 °F - 8.8 °F 22% 30.25 in - Calm Calm - N/A   Clear
7:15 AM 46.0 °F - 10.0 °F 23% 30.26 in - Calm Calm - N/A   Clear
7:35 AM 44.1 °F - 9.7 °F 25% 30.27 in - Calm Calm - N/A   Scattered Clouds
7:55 AM 44.8 °F - 10.0 °F 24% 30.27 in - Calm Calm - N/A   Mostly Cloudy
8:15 AM 43.9 °F - 10.6 °F 26% 30.29 in - Calm Calm - N/A   Mostly Cloudy
8:35 AM 44.2 °F - 10.8 °F 26% 30.29 in - Calm Calm - N/A   Scattered Clouds
8:55 AM 45.1 °F - 10.6 °F 25% 30.30 in - Calm Calm - N/A   Clear
9:15 AM 46.4 °F 45.2 °F 12.0 °F 25% 30.30 in - South 3.5 mph - N/A   Clear
9:35 AM 46.4 °F 45.2 °F 14.7 °F 28% 30.30 in - SSW 3.5 mph - N/A   Clear
9:55 AM 47.3 °F - 14.9 °F 27% 30.30 in - SSE 3.5 mph - N/A   Clear
10:15 AM 48.4 °F - 16.2 °F 28% 30.30 in - South 3.5 mph - N/A   Clear
10:35 AM 50.5 °F - 20.5 °F 31% 30.30 in - South 6.9 mph - N/A   Clear
10:55 AM 51.6 °F - 22.1 °F 32% 30.30 in - South 6.9 mph - N/A   Clear
11:15 AM 53.2 °F - 23.0 °F 31% 30.30 in - SSE 8.1 mph - N/A   Clear
11:35 AM 53.8 °F - 23.5 °F 31% 30.30 in - South 5.8 mph - N/A   Clear
11:55 AM 54.1 °F - 23.2 °F 30% 30.29 in - SE 4.6 mph - N/A   Clear
12:15 PM 55.0 °F - 23.0 °F 29% 30.29 in - South 4.6 mph - N/A   Clear
12:35 PM 55.6 °F - 22.6 °F 28% 30.29 in - SSE 8.1 mph - N/A   Clear
12:55 PM 56.3 °F - 21.9 °F 26% 30.28 in - SE 3.5 mph - N/A   Clear
1:15 PM 57.2 °F - 21.4 °F 25% 30.27 in - South 4.6 mph - N/A   Clear
1:35 PM 57.6 °F - 20.1 °F 23% 30.27 in - Calm Calm - N/A   Clear
1:55 PM 58.1 °F - 20.7 °F 23% 30.26 in - South 4.6 mph - N/A   Scattered Clouds
2:15 PM 59.4 °F - 21.0 °F 23% 30.25 in - NE 3.5 mph - N/A   Mostly Cloudy
2:35 PM 58.1 °F - 22.3 °F 25% 30.24 in - Calm Calm - N/A   Scattered Clouds
2:55 PM 59.4 °F - 21.9 °F 24% 30.24 in - East 3.5 mph - N/A   Scattered Clouds
3:15 PM 60.6 °F - 21.9 °F 23% 30.23 in - Calm Calm - N/A   Mostly Cloudy
3:35 PM 60.6 °F - 21.6 °F 22% 30.23 in - Calm Calm - N/A   Overcast
3:55 PM 60.3 °F - 21.9 °F 23% 30.24 in - Calm Calm - N/A   Overcast
4:15 PM 59.2 °F - 21.9 °F 24% 30.24 in - East 5.8 mph - N/A   Mostly Cloudy
4:35 PM 58.8 °F - 21.2 °F 23% 30.24 in - NNE 5.8 mph - N/A   Mostly Cloudy
4:55 PM 58.8 °F - 21.0 °F 23% 30.24 in - Calm Calm - N/A   Mostly Cloudy
5:15 PM 58.1 °F - 19.4 °F 22% 30.24 in - East 3.5 mph - N/A   Clear
5:35 PM 57.2 °F - 18.1 °F 22% 30.24 in - Calm Calm - N/A   Clear
5:55 PM 57.2 °F - 17.2 °F 21% 30.24 in - Calm Calm - N/A   Unknown
6:15 PM 57.6 °F - 17.1 °F 21% 30.25 in - Calm Calm - N/A   Clear
6:35 PM 55.9 °F - 18.1 °F 23% 30.25 in - SSW 3.5 mph - N/A   Clear
6:55 PM 55.4 °F - 20.7 °F 26% 30.25 in - SW 4.6 mph - N/A   Clear
7:15 PM 54.7 °F - 21.2 °F 27% 30.25 in - WSW 6.9 mph - N/A   Clear
7:35 PM 53.8 °F - 21.6 °F 28% 30.25 in - WSW 6.9 mph - N/A   Clear
7:55 PM 53.4 °F - 21.2 °F 28% 30.26 in - West 8.1 mph - N/A   Clear
8:15 PM 54.1 °F - 19.4 °F 26% 30.27 in - West 8.1 mph - N/A   Clear
8:35 PM 53.2 °F - 18.1 °F 25% 30.27 in - West 8.1 mph - N/A   Clear
8:55 PM 54.7 °F - 15.4 °F 21% 30.27 in - WNW 3.5 mph - N/A   Clear
9:15 PM 53.1 °F - 15.8 °F 23% 30.27 in - West 5.8 mph - N/A   Clear
9:35 PM 52.5 °F - 15.6 °F 23% 30.28 in - WNW 5.8 mph - N/A   Clear
9:55 PM 54.1 °F - 15.3 °F 22% 30.28 in - Calm Calm - N/A   Clear
10:15 PM 53.2 °F - 15.1 °F 22% 30.29 in - ENE 3.5 mph - N/A   Clear
10:35 PM 50.9 °F - 16.7 °F 26% 30.29 in - ENE 4.6 mph - N/A   Clear
10:55 PM 50.7 °F - 19.0 °F 29% 30.29 in - NNE 3.5 mph - N/A   Clear
11:15 PM 50.5 °F - 18.5 °F 28% 30.30 in - Calm Calm - N/A   Clear
11:35 PM 50.4 °F - 18.9 °F 29% 30.30 in - Calm Calm - N/A   Clear
11:55 PM 50.9 °F - 15.6 °F 25% 30.30 in - Calm Calm - N/A   Clear